Location: Alberta Star Party
(51.6612°N, 112.9089°W)
Time: 13:22:21
(UTC-06:00)

Amateur Radio Satellites - All Passes

Search period start: 05 July 2015 12:52
Search period end: 06 July 2015 12:52
Location: Alberta Star Party, 51.6612°N, 112.9089°W

Satellite Date Start Highest point End Downlink Frequencies (MHz)
Time Altitude Azimuth
Oscar 19 05 Jul 12:54:28 12:58:52 31° 62° (ENE) 13:03:21 437.125/150
GONETS M04 05 Jul 12:55:11 13:01:21 20° 313° (NW) 13:07:14
ESTCUBE 1 05 Jul 12:57:19 13:01:53 67° 102° (ESE) 13:06:24 437.505/2401.250
QB50P1 05 Jul 13:02:54 13:05:43 17° 272° (W) 13:08:26 145.935-145.965
Gurwin Techsat 1B 05 Jul 13:09:55 13:13:09 17° 53° (NE) 13:16:33 435.225
ITAMSAT 1 05 Jul 13:10:01 13:13:07 16° 52° (NE) 13:16:22 435.822/435.867
VELOX 1 05 Jul 13:10:36 13:15:01 67° 289° (WNW) 13:19:23 145.980
DX 1 05 Jul 13:16:17 13:20:18 36° 294° (WNW) 13:24:17 434.975-435.025
NANOSAT C BR1 05 Jul 13:17:45 13:19:43 13° 274° (W) 13:21:31 145.865
50 SAT 05 Jul 13:20:03 13:23:44 40° 291° (WNW) 13:27:25 437.505
DELFI C3 05 Jul 13:23:05 13:24:38 12° 304° (NW) 13:26:03 145.870
DUCHIFAT 1 05 Jul 13:25:03 13:26:23 11° 276° (W) 13:27:30 145.980
HO-68 05 Jul 13:26:18 13:30:20 16° 321° (NW) 13:34:10 435.675
BEESAT 3 05 Jul 13:33:01 13:35:33 16° 15° (NNE) 13:38:08 437.485
AIST 2 05 Jul 13:33:32 13:35:49 14° 359° (N) 13:38:06 435.215
ZACube-1 05 Jul 13:33:38 13:35:20 12° 304° (NW) 13:36:53 437.345
SPROUT 05 Jul 13:34:14 13:38:21 44° 98° (E) 13:42:27 437.525
UKube-1 05 Jul 13:35:48 13:39:30 27° 297° (WNW) 13:43:08 .
BUGSAT 1 05 Jul 13:36:45 13:38:28 12° 275° (W) 13:39:59 437.445
HUMSAT D 05 Jul 13:42:40 13:45:30 18° 300° (WNW) 13:48:14 437.325/437.525
BEESAT 2 05 Jul 13:46:43 13:49:22 16° 16° (NNE) 13:52:02 435.950
SWISSCUBE 05 Jul 13:48:47 13:49:27 10° 82° (E) 13:50:23 437.505
ITUPSAT 1 05 Jul 13:54:22 13:55:20 11° 82° (E) 13:56:34 437.325
AO-7 05 Jul 13:55:38 14:01:39 23° 40° (NE) 14:07:51 29.400- 29.500
AISAT 05 Jul 13:58:36 14:02:19 26° 298° (WNW) 14:05:56 437.250
RS-15 05 Jul 14:03:54 14:13:05 27° 257° (WSW) 14:22:05 29.354- 29.394
TISAT 1 05 Jul 14:11:31 14:15:44 69° 103° (ESE) 14:19:53 437.305
CUBEBUG 1 05 Jul 14:12:51 14:16:44 30° 296° (WNW) 14:20:31 437.445
Cosmos 2499 05 Jul 14:16:32 14:21:28 19° 310° (NW) 14:26:17 435.465 / 435.565
YUBILEINY 05 Jul 14:24:04 14:32:32 51° 68° (ENE) 14:41:03 435.215
ISS 05 Jul 14:28:13 14:31:05 29° 210° (SSW) 14:33:57 145.825
JAS-2 05 Jul 14:32:45 14:36:45 23° 55° (NE) 14:41:06 435.910
Oscar 19 05 Jul 14:33:06 14:38:04 49° 261° (W) 14:43:04 437.125/150
HORYU 2 05 Jul 14:34:29 14:36:13 12° 53° (NE) 14:38:06 437.375
ESTCUBE 1 05 Jul 14:34:59 14:38:21 20° 301° (WNW) 14:41:35 437.505/2401.250
ITAMSAT 1 05 Jul 14:46:40 14:51:53 77° 72° (ENE) 14:57:10 435.822/435.867
Gurwin Techsat 1B 05 Jul 14:47:06 14:52:24 79° 73° (ENE) 14:57:46 435.225
VELOX 1 05 Jul 14:49:08 14:50:48 12° 307° (NW) 14:52:19 145.980
Cosmos 2491 05 Jul 14:53:50 15:01:00 30° 81° (E) 15:08:23 435.465 / 435.565
BEESAT 05 Jul 15:07:48 15:12:26 47° 98° (E) 15:17:05 436.000
BEESAT 3 05 Jul 15:10:38 15:14:31 40° 38° (NE) 15:18:23 437.485
SPROUT 05 Jul 15:10:42 15:14:15 25° 297° (WNW) 15:17:43 437.525
AIST 2 05 Jul 15:12:37 15:15:52 21° 23° (NNE) 15:19:06 435.215
SWISSCUBE 05 Jul 15:23:31 15:28:21 69° 103° (ESE) 15:33:08 437.505
AIST 1 05 Jul 15:23:47 15:26:35 17° 85° (E) 15:29:31
Cosmos 2504 05 Jul 15:23:56 15:28:18 17° 50° (NE) 15:33:06 435.465 / 435.565
O/OREOS (USA 219) 05 Jul 15:24:19 15:26:25 13° 33° (NNE) 15:28:39 437.305
BEESAT 2 05 Jul 15:24:27 15:28:25 43° 39° (NE) 15:32:20 435.950
ITUPSAT 1 05 Jul 15:29:24 15:34:15 70° 103° (ESE) 15:39:03 437.325
PCSat 05 Jul 15:34:11 15:37:45 19° 108° (ESE) 15:41:30 145.827
AO-7 05 Jul 15:44:54 15:53:07 66° 63° (ENE) 16:01:25 29.400- 29.500
TISAT 1 05 Jul 15:48:15 15:51:04 17° 301° (WNW) 15:53:46 437.305
KKS-1 05 Jul 16:03:19 16:07:18 32° 95° (E) 16:11:17 437.445
HORYU 2 05 Jul 16:07:44 16:12:07 71° 72° (ENE) 16:16:33 437.375
JAS-2 05 Jul 16:16:11 16:21:23 71° 257° (WSW) 16:26:59 435.910
YUBILEINY 05 Jul 16:21:10 16:29:26 48° 272° (W) 16:37:39 435.215
ITAMSAT 1 05 Jul 16:28:19 16:32:04 19° 272° (W) 16:35:40 435.822/435.867
Gurwin Techsat 1B 05 Jul 16:29:19 16:33:06 19° 273° (W) 16:36:44 435.225
Cubesat XI-IV 05 Jul 16:30:48 16:31:47 11° 45° (NE) 16:32:58 437.490
BEESAT 05 Jul 16:45:58 16:50:07 29° 298° (WNW) 16:54:12 436.000
Cosmos 2491 05 Jul 16:48:19 16:57:10 77° 283° (WNW) 17:06:02 435.465 / 435.565
BEESAT 3 05 Jul 16:48:42 16:52:27 35° 239° (WSW) 16:56:06 437.485
AIST 2 05 Jul 16:50:54 16:55:09 69° 44° (NE) 16:59:20 435.215
STARS 05 Jul 16:52:09 16:56:30 58° 101° (E) 17:00:49 437.465
AIST 1 05 Jul 16:59:25 17:03:48 63° 284° (WNW) 17:08:13
SWISSCUBE 05 Jul 17:02:08 17:05:47 21° 302° (WNW) 17:09:20 437.505
O/OREOS (USA 219) 05 Jul 17:02:30 17:06:57 53° 56° (NE) 17:11:25 437.305
BEESAT 2 05 Jul 17:02:42 17:06:24 32° 239° (WSW) 17:10:02 435.950
SO-50 05 Jul 17:07:26 17:11:20 26° 117° (ESE) 17:15:24 436.795
ITUPSAT 1 05 Jul 17:08:05 17:11:42 21° 302° (WNW) 17:15:13 437.325
Cosmos 2504 05 Jul 17:14:55 17:22:15 63° 74° (ENE) 17:30:08 435.465 / 435.565
PCSat 05 Jul 17:15:06 17:20:32 90° 303° (WNW) 17:26:01 145.827
CUTE-I 05 Jul 17:31:57 17:36:19 27° 59° (ENE) 17:40:47 437.470
AO-7 05 Jul 17:38:51 17:46:30 37° 265° (W) 17:54:06 29.400- 29.500
KKS-1 05 Jul 17:39:54 17:43:58 35° 295° (WNW) 17:48:00 437.445
HORYU 2 05 Jul 17:46:28 17:49:19 16° 272° (W) 17:52:02 437.375
Cubesat XI-IV 05 Jul 18:05:38 18:10:42 45° 66° (ENE) 18:15:51 437.490
MOZHAYETS 4 05 Jul 18:05:48 18:10:27 63° 101° (E) 18:15:04
JAS-2 05 Jul 18:06:12 18:07:57 11° 281° (W) 18:09:24 435.910
YUBILEINY 05 Jul 18:22:10 18:24:08 11° 294° (WNW) 18:25:30 435.215
CUSAT 1 05 Jul 18:26:05 18:27:22 13° 61° (ENE) 18:28:40 437.405
STARS 05 Jul 18:29:17 18:32:37 21° 300° (WNW) 18:35:51 437.465
BRITE-PL 05 Jul 18:29:20 18:31:18 12° 54° (NE) 18:33:25 437.365/2234.400
AIST 2 05 Jul 18:30:13 18:33:19 20° 244° (WSW) 18:36:19 435.215
CUBESAT XI-V 05 Jul 18:37:11 18:39:53 15° 85° (E) 18:42:45 437.345
HO-68 05 Jul 18:39:36 18:43:54 18° 42° (NE) 18:48:24 435.675
O/OREOS (USA 219) 05 Jul 18:42:28 18:46:05 23° 255° (WSW) 18:49:38 437.305
SO-50 05 Jul 18:46:45 18:51:33 66° 317° (NW) 18:56:29 436.795
Cosmos 2491 05 Jul 18:49:01 18:55:51 23° 309° (NW) 19:02:26 435.465 / 435.565
PCSat 05 Jul 19:00:01 19:04:40 27° 330° (NNW) 19:09:18 145.827
GONETS M04 05 Jul 19:00:30 19:07:23 26° 53° (NE) 19:14:27
Cosmos 2504 05 Jul 19:07:38 19:14:08 34° 275° (W) 19:20:55 435.465 / 435.565
CUTE-I 05 Jul 19:10:44 19:16:04 62° 258° (WSW) 19:21:27 437.470
GOMX 1 05 Jul 19:33:44 19:37:33 23° 62° (ENE) 19:41:17 467.674
DANDE 05 Jul 19:38:28 19:41:30 67° 77° (ENE) 19:44:07 436.750
MOZHAYETS 4 05 Jul 19:43:44 19:47:18 22° 300° (WNW) 19:50:47
Cubesat XI-IV 05 Jul 19:46:05 19:50:59 34° 265° (W) 19:55:51 437.490
PRISM 05 Jul 19:51:59 19:55:17 22° 92° (E) 19:58:38 437.425
COMPASS 1 05 Jul 19:52:23 19:54:06 13° 56° (NE) 19:55:57 437.405
STRAND 1 05 Jul 20:03:29 20:08:07 33° 95° (E) 20:12:47 437.568
BRITE-PL 05 Jul 20:03:49 20:09:04 60° 71° (ENE) 20:13:58 437.365/2234.400
CUTE 1.7 + AOD 2 05 Jul 20:05:11 20:08:25 22° 62° (ENE) 20:11:45 437.475
CUSAT 1 05 Jul 20:07:49 20:10:08 24° 266° (W) 20:12:19 437.405
CANX-2 05 Jul 20:08:30 20:11:57 25° 64° (ENE) 20:15:29 2200.000
DOVE 4 05 Jul 20:10:47 20:14:50 30° 65° (ENE) 20:18:45 437.250
Cosmos 2499 05 Jul 20:10:53 20:15:13 16° 47° (NE) 20:20:01 435.465 / 435.565
CUBESAT XI-V 05 Jul 20:13:17 20:18:01 81° 286° (WNW) 20:22:41 437.345
HO-68 05 Jul 20:23:25 20:30:20 57° 64° (ENE) 20:37:20 435.675
SO-50 05 Jul 20:28:57 20:32:57 24° 340° (NNW) 20:36:59 436.795
UWE-3 05 Jul 20:39:09 20:40:44 12° 56° (NE) 20:42:28 435.000/436.395/437.385
CINEMA 3 05 Jul 20:46:19 20:50:07 30° 66° (ENE) 20:53:52 145.822/145.860
PCSat 05 Jul 20:46:34 20:49:55 16° 355° (N) 20:53:14 145.827
SEEDS 05 Jul 20:50:16 20:54:16 45° 69° (ENE) 20:58:19 437.485
CUTE-I 05 Jul 20:56:09 20:57:24 11° 280° (W) 20:58:20 437.470
GONETS M04 05 Jul 20:56:59 21:05:46 86° 81° (E) 21:14:29
AAUSAT CUBESAT 2 05 Jul 20:57:55 21:01:46 39° 68° (ENE) 21:05:41 437.432
DELFI C3 05 Jul 21:04:55 21:07:37 18° 60° (ENE) 21:10:24 145.870
GOMX 1 05 Jul 21:10:27 21:15:26 60° 259° (W) 21:20:06 467.674
ZACube-1 05 Jul 21:21:31 21:24:43 22° 62° (ENE) 21:27:59 437.345
CUBEBUG 2 05 Jul 21:24:55 21:28:45 35° 67° (ENE) 21:32:34 437.445
COMPASS 1 05 Jul 21:24:57 21:29:07 81° 73° (ENE) 21:33:19 437.405
Oscar 11 05 Jul 21:26:10 21:30:07 38° 67° (ENE) 21:34:09 145.826/435.025
UKube-1 05 Jul 21:26:21 21:28:02 12° 53° (NE) 21:29:52 .
PRISM 05 Jul 21:26:54 21:30:58 46° 291° (WNW) 21:34:59 437.425
HUMSAT D 05 Jul 21:29:46 21:31:45 14° 57° (ENE) 21:33:53 437.325/437.525
CUTE 1.7 + AOD 2 05 Jul 21:39:57 21:44:03 50° 260° (W) 21:48:13 437.475
STRAND 1 05 Jul 21:42:35 21:47:28 43° 295° (WNW) 21:52:18 437.568
BRITE-PL 05 Jul 21:43:36 21:47:55 24° 269° (W) 21:51:56 437.365/2234.400
CANX-2 05 Jul 21:43:41 21:47:43 42° 263° (W) 21:51:46 2200.000
DOVE 4 05 Jul 21:48:02 21:52:32 41° 263° (W) 21:56:48 437.250
AISAT 05 Jul 21:50:45 21:52:55 14° 55° (NE) 21:55:15 437.250
CUBESAT XI-V 05 Jul 21:52:08 21:54:46 15° 305° (NW) 21:57:15 437.345
AUBIESAT-1 05 Jul 21:52:28 21:55:51 24° 99° (E) 21:59:29 437.475
FUNcube-1 05 Jul 21:56:08 22:00:04 43° 69° (ENE) 22:04:02 145.935
Cosmos 2499 05 Jul 22:02:46 22:10:22 58° 72° (ENE) 22:18:35 435.465 / 435.565
CUBEBUG 1 05 Jul 22:05:13 22:06:12 11° 52° (NE) 22:07:22 437.445
SO-50 05 Jul 22:11:36 22:15:04 19° 4° (N) 22:18:34 436.795
HO-68 05 Jul 22:11:50 22:18:26 38° 265° (W) 22:24:58 435.675
UWE-3 05 Jul 22:12:26 22:16:39 79° 74° (ENE) 22:20:50 435.000/436.395/437.385
CINEMA 3 05 Jul 22:23:11 22:27:18 36° 264° (W) 22:31:15 145.822/145.860
SEEDS 05 Jul 22:26:57 22:30:18 22° 269° (W) 22:33:37 437.485
ESTCUBE 1 05 Jul 22:27:05 22:30:13 19° 58° (ENE) 22:33:27 437.505/2401.250
M-CUBED/EXP-1 PRIME 05 Jul 22:27:45 22:31:51 55° 107° (ESE) 22:36:15 437.505
PCSat 05 Jul 22:31:18 22:35:21 21° 21° (NNE) 22:39:26 145.827
AAUSAT CUBESAT 2 05 Jul 22:33:59 22:37:30 26° 267° (W) 22:41:01 437.432
50 SAT 05 Jul 22:35:07 22:38:22 27° 65° (ENE) 22:41:40 437.505
VELOX 1 05 Jul 22:37:28 22:41:20 30° 64° (ENE) 22:45:17 145.980
DELFI C3 05 Jul 22:38:20 22:42:19 61° 259° (W) 22:46:20 145.870
DX 1 05 Jul 22:40:38 22:44:53 52° 69° (ENE) 22:49:11 434.975-435.025
GONETS M04 05 Jul 22:54:50 23:01:41 26° 281° (WNW) 23:08:16
ZACube-1 05 Jul 22:56:48 23:00:51 48° 261° (W) 23:04:54 437.345
UKube-1 05 Jul 22:59:08 23:03:27 72° 72° (ENE) 23:07:49 .
SPROUT 05 Jul 23:00:58 23:02:16 11° 54° (NE) 23:03:44 437.525
CUBEBUG 2 05 Jul 23:01:46 23:05:32 29° 266° (W) 23:09:11 437.445
Oscar 11 05 Jul 23:02:39 23:06:25 28° 266° (W) 23:10:09 145.826/435.025
HUMSAT D 05 Jul 23:02:50 23:06:57 88° 254° (WSW) 23:11:04 437.325/437.525
COMPASS 1 05 Jul 23:03:23 23:05:26 13° 275° (W) 23:07:18 437.405
ANTELSAT 05 Jul 23:21:40 23:25:09 23° 92° (E) 23:28:45 437.575/2403.000
AISAT 05 Jul 23:24:22 23:28:51 80° 73° (ENE) 23:33:20 437.250
AUBIESAT-1 05 Jul 23:26:46 23:30:47 50° 296° (WNW) 23:35:04 437.475
DUCHIFAT 1 05 Jul 23:27:15 23:28:09 11° 84° (E) 23:29:16 145.980
TIGRISAT 05 Jul 23:33:09 23:36:54 28° 94° (E) 23:40:45 435.000
FUNcube-1 05 Jul 23:33:13 23:36:37 23° 268° (W) 23:39:55 145.935
POLYITAN 1 05 Jul 23:33:26 23:35:25 13° 86° (E) 23:37:35 437.675
TISAT 1 05 Jul 23:35:04 23:37:35 16° 58° (ENE) 23:40:11 437.305
CUBEBUG 1 05 Jul 23:37:22 23:41:45 60° 71° (ENE) 23:46:08 437.445
UWE-3 05 Jul 23:51:43 23:53:48 13° 274° (W) 23:55:43 435.000/436.395/437.385
SO-50 05 Jul 23:52:39 23:57:03 30° 28° (NNE) 00:01:28 436.795
Cosmos 2499 05 Jul 23:56:17 00:03:22 39° 273° (W) 00:10:48 435.465 / 435.565
QB50P2 06 Jul 00:01:49 00:05:17 25° 92° (E) 00:08:49 145.880/145.840
ESTCUBE 1 06 Jul 00:02:05 00:06:38 72° 257° (WSW) 00:11:13 437.505/2401.250
POPSAT HIP 1 06 Jul 00:02:10 00:05:35 24° 92° (E) 00:09:03 437.405
M-CUBED/EXP-1 PRIME 06 Jul 00:03:08 00:06:26 23° 303° (WNW) 00:09:52 437.505
50 SAT 06 Jul 00:09:26 00:12:55 32° 264° (W) 00:16:25 437.505
UNISAT 6 06 Jul 00:13:14 00:17:36 67° 102° (ESE) 00:22:02 437.425
VELOX 1 06 Jul 00:13:37 00:17:49 39° 263° (W) 00:22:00 145.980
PCSat 06 Jul 00:14:36 00:19:57 55° 45° (NE) 00:25:18 145.827
DX 1 06 Jul 00:18:02 00:21:27 21° 269° (W) 00:24:48 434.975-435.025
SPROUT 06 Jul 00:33:21 00:37:37 68° 73° (ENE) 00:41:55 437.525
UKube-1 06 Jul 00:37:26 00:40:08 16° 272° (W) 00:42:43 .
QB50P1 06 Jul 00:40:35 00:44:45 56° 100° (E) 00:48:53 145.935-145.965
HUMSAT D 06 Jul 00:42:18 00:43:26 11° 276° (W) 00:44:21 437.325/437.525
BEESAT 06 Jul 00:43:55 00:46:59 18° 56° (NE) 00:50:12 436.000
NANOSAT C BR1 06 Jul 00:54:08 00:58:22 75° 103° (ESE) 01:02:33 145.865
Cosmos 2491 06 Jul 00:55:38 01:02:02 22° 49° (NE) 01:08:37 435.465 / 435.565
ANTELSAT 06 Jul 00:57:58 01:02:12 48° 290° (WNW) 01:06:29 437.575/2403.000
SWISSCUBE 06 Jul 00:58:54 01:02:40 24° 60° (ENE) 01:06:33 437.505
DUCHIFAT 1 06 Jul 01:00:31 01:04:44 84° 103° (ESE) 01:08:56 145.980
AISAT 06 Jul 01:03:27 01:06:03 15° 273° (W) 01:08:29 437.250
ITUPSAT 1 06 Jul 01:04:57 01:08:47 25° 60° (ENE) 01:12:42 437.325
POLYITAN 1 06 Jul 01:07:43 01:11:57 80° 286° (WNW) 01:16:10 437.675
TISAT 1 06 Jul 01:08:36 01:12:51 79° 256° (WSW) 01:17:06 437.305
TIGRISAT 06 Jul 01:09:42 01:13:46 39° 293° (WNW) 01:17:54 435.000
BUGSAT 1 06 Jul 01:10:21 01:14:26 73° 103° (ESE) 01:18:28 437.445
CUBEBUG 1 06 Jul 01:15:18 01:18:32 19° 271° (W) 01:21:39 437.445
SO-50 06 Jul 01:33:07 01:38:08 81° 229° (SW) 01:43:03 436.795
KKS-1 06 Jul 01:34:27 01:35:00 10° 51° (NE) 01:35:45 437.445
QB50P2 06 Jul 01:37:22 01:41:22 42° 292° (WNW) 01:45:20 145.880/145.840
POPSAT HIP 1 06 Jul 01:37:39 01:41:39 42° 292° (WNW) 01:45:38 437.405
ESTCUBE 1 06 Jul 01:43:48 01:44:27 10° 278° (W) 01:44:51 437.505/2401.250
UNISAT 6 06 Jul 01:50:54 01:54:00 19° 300° (WNW) 01:57:02 437.425
PCSat 06 Jul 01:58:21 02:03:13 34° 246° (WSW) 02:08:02 145.827
SPROUT 06 Jul 02:11:26 02:14:13 16° 272° (W) 02:16:52 437.525
QB50P1 06 Jul 02:17:08 02:20:18 20° 299° (WNW) 02:23:22 145.935-145.965
BEESAT 06 Jul 02:19:28 02:24:16 85° 256° (WSW) 02:29:06 436.000
STARS 06 Jul 02:19:55 02:22:34 16° 57° (ENE) 02:25:21 437.465
RS-15 06 Jul 02:21:30 02:31:03 39° 110° (ESE) 02:41:06 29.354- 29.394
NANOSAT C BR1 06 Jul 02:31:02 02:33:43 16° 302° (WNW) 02:36:17 145.865
SWISSCUBE 06 Jul 02:35:28 02:40:13 59° 259° (W) 02:45:00 437.505
DUCHIFAT 1 06 Jul 02:37:36 02:40:01 15° 303° (WNW) 02:42:18 145.980
Oscar 19 06 Jul 02:38:54 02:43:42 39° 96° (E) 02:48:32 437.125/150
ITUPSAT 1 06 Jul 02:41:39 02:46:22 57° 259° (W) 02:51:09 437.325
POLYITAN 1 06 Jul 02:45:19 02:47:13 13° 305° (NW) 02:48:58 437.675
BUGSAT 1 06 Jul 02:46:55 02:49:26 16° 302° (WNW) 02:51:50 437.445
TISAT 1 06 Jul 02:48:45 02:49:26 10° 276° (W) 02:49:52 437.305
Cosmos 2491 06 Jul 02:52:00 03:00:49 74° 76° (ENE) 03:09:32 435.465 / 435.565
ITAMSAT 1 06 Jul 02:54:57 02:58:27 18° 87° (E) 03:02:05 435.822/435.867
Gurwin Techsat 1B 06 Jul 02:58:27 03:02:23 21° 88° (E) 03:06:26 435.225
AIST 1 06 Jul 03:00:56 03:05:16 58° 75° (ENE) 03:09:32
KKS-1 06 Jul 03:06:26 03:10:48 57° 70° (ENE) 03:15:11 437.445
SO-50 06 Jul 03:14:58 03:18:00 16° 248° (WSW) 03:20:52 436.795
JAS-2 06 Jul 03:19:14 03:22:37 15° 82° (E) 03:26:33 435.910
YUBILEINY 06 Jul 03:32:04 03:40:08 46° 88° (E) 03:48:19 435.215
MOZHAYETS 4 06 Jul 03:37:45 03:40:47 18° 58° (ENE) 03:43:57
AO-7 06 Jul 03:42:35 03:46:07 14° 78° (ENE) 03:50:12 29.400- 29.500
STARS 06 Jul 03:54:06 03:58:30 82° 256° (WSW) 04:02:56 437.465
BEESAT 06 Jul 04:00:33 04:02:57 13° 275° (W) 04:05:09 436.000
Oscar 19 06 Jul 04:18:22 04:23:04 37° 296° (WNW) 04:27:43 437.125/150
RS-15 06 Jul 04:31:34 04:42:36 80° 316° (NW) 04:54:07 29.354- 29.394
ITAMSAT 1 06 Jul 04:33:24 04:38:40 79° 286° (WNW) 04:43:52 435.822/435.867
Gurwin Techsat 1B 06 Jul 04:37:38 04:42:57 71° 289° (WNW) 04:48:15 435.225
AIST 1 06 Jul 04:39:31 04:42:32 18° 274° (W) 04:45:24
KKS-1 06 Jul 04:44:27 04:47:49 20° 270° (W) 04:51:05 437.445
Cosmos 2491 06 Jul 04:49:36 04:57:02 31° 279° (W) 05:04:13 435.465 / 435.565
JAS-2 06 Jul 05:02:24 05:08:53 67° 102° (ESE) 05:16:11 435.910
MOZHAYETS 4 06 Jul 05:12:55 05:17:31 77° 257° (WSW) 05:22:10
YUBILEINY 06 Jul 05:28:32 05:36:58 52° 291° (WNW) 05:45:26 435.215
HORYU 2 06 Jul 05:29:54 05:34:22 67° 103° (ESE) 05:38:50 437.375
AO-7 06 Jul 05:32:52 05:41:07 58° 102° (ESE) 05:49:21 29.400- 29.500
STARS 06 Jul 05:34:20 05:35:46 11° 276° (W) 05:36:59 437.465
CUBESAT XI-V 06 Jul 05:45:19 05:49:18 28° 63° (ENE) 05:53:23 437.345
STRAND 1 06 Jul 05:48:04 05:51:12 17° 53° (NE) 05:54:29 437.568
Cosmos 2504 06 Jul 05:52:53 05:59:03 37° 87° (E) 06:05:23 435.465 / 435.565
ITAMSAT 1 06 Jul 06:14:08 06:17:27 17° 307° (NW) 06:20:35 435.822/435.867
Gurwin Techsat 1B 06 Jul 06:19:02 06:22:08 15° 309° (NW) 06:25:04 435.225
Cubesat XI-IV 06 Jul 06:19:39 06:21:03 11° 81° (E) 06:22:46 437.490
RS-15 06 Jul 06:46:11 06:56:48 46° 347° (NNW) 07:07:53 29.354- 29.394
PRISM 06 Jul 06:46:53 06:50:41 34° 65° (ENE) 06:54:31 437.425
JAS-2 06 Jul 06:48:05 06:53:42 33° 300° (WNW) 06:59:50 435.910
BEESAT 3 06 Jul 06:48:54 06:49:46 11° 111° (ESE) 06:50:49 437.485
MOZHAYETS 4 06 Jul 06:54:11 06:55:40 11° 278° (W) 06:56:55
BEESAT 2 06 Jul 07:03:06 07:04:38 12° 112° (ESE) 07:06:20 435.950
HORYU 2 06 Jul 07:07:22 07:10:36 20° 301° (WNW) 07:13:45 437.375
DANDE 06 Jul 07:14:18 07:16:18 12° 87° (E) 07:18:28 436.750
O/OREOS (USA 219) 06 Jul 07:21:21 07:24:35 20° 103° (ESE) 07:27:57 437.305
CUBESAT XI-V 06 Jul 07:22:02 07:26:35 46° 262° (W) 07:31:09 437.345
CUTE-I 06 Jul 07:22:23 07:27:17 35° 95° (E) 07:32:12 437.470
STRAND 1 06 Jul 07:24:33 07:29:42 81° 74° (ENE) 07:34:55 437.568
AO-7 06 Jul 07:25:59 07:33:50 46° 305° (NW) 07:41:35 29.400- 29.500
YUBILEINY 06 Jul 07:31:30 07:36:33 16° 319° (NW) 07:41:15 435.215
CUSAT 1 06 Jul 07:37:13 07:41:19 21° 94° (E) 07:44:50 437.405
Cosmos 2504 06 Jul 07:44:24 07:51:06 50° 290° (WNW) 07:57:54 435.465 / 435.565
M-CUBED/EXP-1 PRIME 06 Jul 07:48:03 07:50:36 20° 55° (NE) 07:53:18 437.505
Cubesat XI-IV 06 Jul 07:56:59 08:02:22 65° 102° (ESE) 08:07:42 437.490
BRITE-PL 06 Jul 08:06:21 08:06:47 10° 81° (E) 08:07:27 437.365/2234.400
GONETS M04 06 Jul 08:11:18 08:17:14 22° 76° (ENE) 08:23:27
PRISM 06 Jul 08:22:24 08:26:09 30° 265° (W) 08:29:53 437.425
BEESAT 3 06 Jul 08:22:57 08:27:01 71° 129° (SE) 08:31:08 437.485
AIST 2 06 Jul 08:32:28 08:35:52 24° 117° (ESE) 08:39:21 435.215
BEESAT 2 06 Jul 08:37:56 08:42:03 78° 130° (SE) 08:46:13 435.950
AUBIESAT-1 06 Jul 08:45:27 08:48:49 65° 66° (ENE) 08:52:24 437.475
ISS 06 Jul 08:46:27 08:48:59 21° 146° (SE) 08:51:33 145.825
DANDE 06 Jul 08:52:35 08:59:08 68° 101° (E) 09:04:02 436.750
O/OREOS (USA 219) 06 Jul 08:59:14 09:03:39 59° 303° (WNW) 09:08:07 437.305
RS-15 06 Jul 09:01:14 09:12:09 48° 19° (NNE) 09:23:38 29.354- 29.394
CUTE-I 06 Jul 09:02:25 09:07:30 43° 295° (WNW) 09:12:31 437.470
VERMONT LUNAR 06 Jul 09:03:10 09:03:21 10° 171° (S) 09:03:34 437.305
STRAND 1 06 Jul 09:06:07 09:09:38 18° 273° (W) 09:12:59 437.568
GOMX 1 06 Jul 09:07:22 09:10:49 24° 92° (E) 09:14:15 467.674
CUSAT 1 06 Jul 09:18:08 09:23:50 59° 285° (WNW) 09:28:05 437.405
AO-7 06 Jul 09:19:41 09:24:42 17° 329° (NNW) 09:29:32 29.400- 29.500
CUTE 1.7 + AOD 2 06 Jul 09:20:10 09:23:18 20° 90° (E) 09:26:32 437.475
M-CUBED/EXP-1 PRIME 06 Jul 09:22:01 09:25:13 41° 256° (WSW) 09:28:37 437.505
CANX-2 06 Jul 09:23:39 09:27:04 23° 91° (E) 09:30:35 2200.000
HO-68 06 Jul 09:32:39 09:39:05 35° 94° (E) 09:45:34 435.675
Cubesat XI-IV 06 Jul 09:37:42 09:42:06 26° 302° (WNW) 09:46:24 437.490
DOVE 4 06 Jul 09:41:25 09:45:11 32° 95° (E) 09:48:58 437.250
BRITE-PL 06 Jul 09:41:53 09:46:19 83° 103° (ESE) 09:50:29 437.365/2234.400
Cosmos 2504 06 Jul 09:42:39 09:45:32 12° 316° (NW) 09:48:08 435.465 / 435.565
UNISAT 6 06 Jul 09:42:49 09:45:31 17° 59° (ENE) 09:48:20 437.425
UWE-3 06 Jul 09:59:04 09:59:54 11° 84° (E) 10:00:58 435.000/436.395/437.385
BEESAT 3 06 Jul 10:01:50 10:05:21 26° 330° (NNW) 10:08:52 437.485
GONETS M04 06 Jul 10:04:05 10:12:52 81° 98° (E) 10:21:38
SEEDS 06 Jul 10:04:37 10:08:41 42° 98° (E) 10:12:46 437.485
QB50P1 06 Jul 10:05:16 10:07:15 13° 56° (NE) 10:09:23 145.935-145.965
AIST 2 06 Jul 10:09:55 10:14:10 60° 317° (NW) 10:18:25 435.215
AAUSAT CUBESAT 2 06 Jul 10:10:39 10:14:31 34° 96° (E) 10:18:24 437.432
CINEMA 3 06 Jul 10:12:04 10:15:49 32° 95° (E) 10:19:39 145.822/145.860
DELFI C3 06 Jul 10:13:22 10:15:18 13° 86° (E) 10:17:24 145.870
BEESAT 2 06 Jul 10:17:04 10:20:34 25° 331° (NNW) 10:24:02 435.950
NANOSAT C BR1 06 Jul 10:17:53 10:20:31 17° 59° (ENE) 10:23:15 145.865
ISS 06 Jul 10:21:47 10:25:01 68° 165° (SSE) 10:28:15 145.825
AUBIESAT-1 06 Jul 10:22:45 10:24:10 12° 268° (W) 10:25:28 437.475
DUCHIFAT 1 06 Jul 10:23:50 10:26:41 18° 60° (ENE) 10:29:37 145.980
ANTELSAT 06 Jul 10:25:54 10:29:50 38° 67° (ENE) 10:33:49 437.575/2403.000
POLYITAN 1 06 Jul 10:31:11 10:34:24 22° 61° (ENE) 10:37:41 437.675
BUGSAT 1 06 Jul 10:32:01 10:34:28 16° 58° (ENE) 10:37:02 437.445
TIGRISAT 06 Jul 10:37:08 10:41:12 46° 69° (ENE) 10:45:19 435.000
DANDE 06 Jul 10:37:39 10:42:31 23° 294° (WNW) 10:46:23 436.750
COMPASS 1 06 Jul 10:38:24 10:42:39 74° 103° (ESE) 10:46:53 437.405
VERMONT LUNAR 06 Jul 10:38:46 10:39:24 10° 187° (S) 10:40:02 437.305
ZACube-1 06 Jul 10:40:04 10:43:17 21° 91° (E) 10:46:37 437.345
O/OREOS (USA 219) 06 Jul 10:41:41 10:44:05 14° 326° (NW) 10:46:25 437.305
HUMSAT D 06 Jul 10:43:42 10:44:34 11° 84° (E) 10:45:38 437.325/437.525
Oscar 11 06 Jul 10:43:49 10:47:51 36° 96° (E) 10:51:53 145.826/435.025
GOMX 1 06 Jul 10:45:11 10:49:11 40° 292° (WNW) 10:53:04 467.674
CUTE-I 06 Jul 10:45:49 10:46:22 10° 315° (NW) 10:46:42 437.470
CUBEBUG 2 06 Jul 10:46:29 10:50:22 36° 96° (E) 10:54:22 437.445
Cosmos 2499 06 Jul 10:47:13 10:53:24 35° 86° (E) 10:59:52 435.465 / 435.565
CUTE 1.7 + AOD 2 06 Jul 10:55:21 10:59:33 54° 289° (WNW) 11:03:45 437.475
CANX-2 06 Jul 10:59:07 11:03:14 45° 291° (WNW) 11:07:20 2200.000
QB50P2 06 Jul 10:59:41 11:03:36 38° 67° (ENE) 11:07:33 145.880/145.840
POPSAT HIP 1 06 Jul 10:59:54 11:03:47 37° 67° (ENE) 11:07:42 437.405
AISAT 06 Jul 11:12:27 11:13:03 10° 83° (E) 11:13:52 437.250
RS-15 06 Jul 11:14:27 11:26:06 89° 52° (NE) 11:38:15 29.354- 29.394
FUNcube-1 06 Jul 11:14:47 11:18:49 43° 98° (E) 11:22:55 145.935
UNISAT 6 06 Jul 11:17:36 11:21:52 72° 257° (WSW) 11:26:09 437.425
DOVE 4 06 Jul 11:19:17 11:22:58 30° 295° (WNW) 11:26:34 437.250
HO-68 06 Jul 11:20:13 11:27:16 61° 295° (WNW) 11:34:16 435.675
BRITE-PL 06 Jul 11:21:43 11:24:16 15° 304° (NW) 11:26:37 437.365/2234.400
PHONESAT 2.4 06 Jul 11:25:34 11:27:17 13° 179° (S) 11:29:01 2401.200-2431.200
UWE-3 06 Jul 11:32:59 11:37:13 83° 103° (ESE) 11:41:31 435.000/436.395/437.385
QB50P1 06 Jul 11:38:16 11:42:31 84° 75° (ENE) 11:46:47 145.935-145.965
50 SAT 06 Jul 11:39:48 11:42:39 19° 91° (E) 11:45:35 437.505
SEEDS 06 Jul 11:40:44 11:44:19 26° 296° (WNW) 11:47:50 437.485
BEESAT 3 06 Jul 11:42:27 11:44:35 14° 353° (N) 11:46:42 437.485
AAUSAT CUBESAT 2 06 Jul 11:46:21 11:50:04 30° 294° (WNW) 11:53:45 437.432
DELFI C3 06 Jul 11:46:52 11:50:58 76° 286° (WNW) 11:55:02 145.870
CINEMA 3 06 Jul 11:49:21 11:53:03 31° 294° (WNW) 11:56:45 145.822/145.860
ESTCUBE 1 06 Jul 11:50:16 11:53:13 17° 88° (E) 11:56:18 437.505/2401.250
AIST 2 06 Jul 11:50:22 11:53:32 19° 339° (NNW) 11:56:40 435.215
NANOSAT C BR1 06 Jul 11:51:39 11:55:54 74° 257° (WSW) 12:00:08 145.865
BEESAT 2 06 Jul 11:57:47 11:59:56 14° 354° (N) 12:02:04 435.950
DUCHIFAT 1 06 Jul 11:57:53 12:02:05 65° 258° (WSW) 12:06:18 145.980
ISS 06 Jul 11:58:08 12:01:24 90° 304° (NW) 12:04:40 145.825
VELOX 1 06 Jul 11:58:35 12:02:22 27° 94° (E) 12:06:09 145.980
DX 1 06 Jul 11:59:37 12:03:49 45° 99° (E) 12:07:59 434.975-435.025
ANTELSAT 06 Jul 12:03:03 12:06:45 27° 266° (W) 12:10:24 437.575/2403.000
GONETS M04 06 Jul 12:03:15 12:10:51 30° 303° (WNW) 12:18:16
BUGSAT 1 06 Jul 12:05:13 12:09:27 79° 256° (WSW) 12:13:39 437.445
POLYITAN 1 06 Jul 12:05:52 12:10:01 52° 260° (W) 12:14:11 437.675
TIGRISAT 06 Jul 12:14:49 12:18:13 22° 269° (W) 12:21:34 435.000
COMPASS 1 06 Jul 12:15:06 12:17:52 17° 301° (WNW) 12:20:29 437.405
ZACube-1 06 Jul 12:15:50 12:19:55 49° 290° (WNW) 12:24:03 437.345
HUMSAT D 06 Jul 12:16:52 12:21:03 84° 104° (ESE) 12:25:15 437.325/437.525
UKube-1 06 Jul 12:17:11 12:21:30 61° 102° (ESE) 12:25:47 .
Oscar 11 06 Jul 12:20:07 12:23:58 31° 295° (WNW) 12:27:47 145.826/435.025
CUBEBUG 2 06 Jul 12:23:22 12:27:01 29° 295° (WNW) 12:30:40 437.445
Oscar 19 06 Jul 12:23:59 12:27:28 19° 55° (NE) 12:31:04 437.125/150
QB50P2 06 Jul 12:35:55 12:39:36 28° 266° (W) 12:43:15 145.880/145.840
POPSAT HIP 1 06 Jul 12:36:02 12:39:45 28° 266° (W) 12:43:25 437.405
ITAMSAT 1 06 Jul 12:43:20 12:44:20 11° 46° (NE) 12:45:33 435.822/435.867
